TimePDT,TemperatureF,Dew PointF,Humidity,Sea Level PressureIn,VisibilityMPH,Wind Direction,Wind SpeedMPH,Gust SpeedMPH,PrecipitationIn,Events,Conditions,WindDirDegrees,DateUTC
12:53 AM,51.1,25.0,36,29.95,10.0,South,5.8,-,N/A,,Clear,180,2012-05-17 07:53:00
1:53 AM,46.0,24.1,42,29.94,10.0,Calm,Calm,-,N/A,,Clear,0,2012-05-17 08:53:00
2:53 AM,42.1,25.0,51,29.94,10.0,SSW,3.5,-,N/A,,Clear,210,2012-05-17 09:53:00
3:53 AM,42.1,25.0,51,29.91,10.0,Calm,Calm,-,N/A,,Clear,0,2012-05-17 10:53:00
6:53 AM,57.0,8.1,14,29.86,10.0,SE,9.2,-,N/A,,Clear,140,2012-05-17 13:53:00
7:53 AM,59.0,7.0,13,29.85,10.0,South,12.7,25.3,N/A,,Clear,170,2012-05-17 14:53:00
8:53 AM,61.0,1.9,9,29.83,10.0,South,18.4,34.5,N/A,,Clear,190,2012-05-17 15:53:00
9:53 AM,62.1,9.0,12,29.84,10.0,SSW,20.7,35.7,N/A,,Clear,200,2012-05-17 16:53:00
10:53 AM,62.1,10.9,13,29.84,10.0,SSW,12.7,26.5,N/A,,Clear,200,2012-05-17 17:53:00
11:53 AM,63.0,16.0,16,29.81,10.0,SSW,11.5,33.4,N/A,,Clear,210,2012-05-17 18:53:00
12:53 PM,63.0,15.1,16,29.81,10.0,South,16.1,25.3,N/A,,Clear,190,2012-05-17 19:53:00
1:53 PM,63.0,18.0,18,29.80,10.0,South,17.3,24.2,N/A,,Clear,190,2012-05-17 20:53:00
2:53 PM,64.0,18.0,17,29.77,10.0,South,23.0,31.1,N/A,,Clear,190,2012-05-17 21:53:00
3:53 PM,62.1,17.1,18,29.77,10.0,SSW,16.1,33.4,N/A,,Clear,210,2012-05-17 22:53:00
4:53 PM,59.0,16.0,19,29.74,10.0,SW,12.7,33.4,N/A,,Clear,220,2012-05-17 23:53:00
5:53 PM,57.0,14.0,18,29.76,10.0,SSW,8.1,23.0,N/A,,Mostly Cloudy,210,2012-05-18 00:53:00
6:53 PM,54.0,21.0,28,29.76,10.0,SSW,8.1,-,N/A,,Scattered Clouds,200,2012-05-18 01:53:00
7:53 PM,50.0,19.0,29,29.79,10.0,SSW,6.9,20.7,N/A,,Scattered Clouds,210,2012-05-18 02:53:00
8:53 PM,48.0,25.0,41,29.81,10.0,Calm,Calm,-,N/A,,Scattered Clouds,0,2012-05-18 03:53:00
9:53 PM,43.0,27.0,53,29.83,10.0,Calm,Calm,-,N/A,,Clear,0,2012-05-18 04:53:00
10:53 PM,45.0,27.0,49,29.83,10.0,SSW,5.8,-,N/A,,Overcast,200,2012-05-18 05:53:00
11:53 PM,41.0,26.1,55,29.84,10.0,Calm,Calm,-,N/A,,Scattered Clouds,0,2012-05-18 06:53:00